Florala, AL

9:54 PM CST on December 04, 2016 (GMT -0600)
Florala

Weather History for K0J4 - November, 2013

Change the Weather History Date:

Saturday, November 30, 2013

  Actual Average (KCEW) Record (KCEW)
Temperature  
Mean Temperature 49 °F -  
Max Temperature 66 °F 66 °F 83 °F (1982)
Min Temperature 32 °F 40 °F 23 °F (2003)
Degree Days  
Heating Degree Days 16    
Moisture  
Dew Point 37 °F    
Average Humidity 66    
Maximum Humidity 92    
Minimum Humidity 32    
Precipitation  
Precipitation 0.00 in - - ()
Sea Level Pressure  
Sea Level Pressure 30.38 in    
Wind  
Wind Speed 3 mph (ENE)    
Max Wind Speed 6 mph    
Max Gust Speed -    
Visibility 10 miles    
Events      
Averages and records for this station are not official NWS values.
T = Trace of Precipitation, MM = Missing Value Source: NWS Daily Summary

Daily Weather History Graph

Daily Weather History Graph

Search for Another Location

Airport or City:

Trip Planner

Search our weather history database for the weather conditions in past years. The results will help you decide how hot, cold, wet, or windy it might be!

Date:

Astronomy

Nov. 30, 2013 Rise Set
Actual Time 6:25 AM CST 4:42 PM CST
Civil Twilight 5:58 AM CST 5:09 PM CST
Nautical Twilight 5:29 AM CST 5:38 PM CST
Astronomical Twilight 4:59 AM CST 6:08 PM CST
Moon 3:44 AM CST (11/30) 2:59 PM CST (11/30)
Length of Visible Light 11h 10m
Length of Day
10h 17m
Waning Crescent, 7% of the Moon is Illuminated
Nov 30
Waning Crescent
Dec 2
New
Dec 9
First Quarter
Dec 17
Full
Dec 25
Last Quarter

Hourly Weather History & Observations

Time (CST) Temp. Windchill Dew Point Humidity Pressure Visibility Wind Dir Wind Speed Gust Speed Precip Events Conditions
12:58 AM 32.0 °F - 30.0 °F 92% 30.45 in 10.0 mi Calm Calm - N/A   Clear
1:58 AM 36.0 °F 33.3 °F 28.9 °F 76% 30.43 in 10.0 mi ENE 3.5 mph - N/A   Clear
2:58 AM 35.1 °F - 28.9 °F 78% 30.43 in 10.0 mi Calm Calm - N/A   Clear
3:58 AM 37.0 °F 33.3 °F 28.9 °F 73% 30.43 in 10.0 mi NE 4.6 mph - N/A   Clear
4:58 AM 36.0 °F 33.3 °F 28.9 °F 76% 30.43 in 10.0 mi ENE 3.5 mph - N/A   Clear
5:58 AM 37.0 °F 33.3 °F 28.9 °F 73% 30.45 in 10.0 mi ENE 4.6 mph - N/A   Clear
6:58 AM 39.0 °F 34.8 °F 30.0 °F 70% 30.45 in 10.0 mi ENE 5.8 mph - N/A   Clear
7:58 AM 44.1 °F 40.8 °F 33.1 °F 65% 30.46 in 10.0 mi ENE 5.8 mph - N/A   Clear
8:58 AM 48.9 °F - 34.0 °F 56% 30.48 in 10.0 mi East 3.5 mph - N/A   Clear
9:58 AM 55.0 °F - 37.0 °F 51% 30.47 in 10.0 mi Calm Calm - N/A   Clear
10:58 AM 60.1 °F - 37.9 °F 44% 30.44 in 10.0 mi NE 3.5 mph - N/A   Clear
11:58 AM 64.9 °F - 36.0 °F 34% 30.40 in 10.0 mi North 3.5 mph - N/A   Clear
12:58 PM 66.0 °F - 35.1 °F 32% 30.37 in 10.0 mi East 5.8 mph - N/A   Clear
1:58 PM 66.9 °F - 39.9 °F 37% 30.34 in 10.0 mi NE 5.8 mph - N/A   Clear
2:58 PM 66.9 °F - 41.0 °F 39% 30.32 in 10.0 mi NNE 4.6 mph - N/A   Clear
3:58 PM 64.0 °F - 43.0 °F 46% 30.31 in 10.0 mi NNE 3.5 mph - N/A   Clear
4:58 PM 54.0 °F - 46.0 °F 75% 30.31 in 10.0 mi Calm Calm - 0.00 in   Clear
5:58 PM 50.0 °F - 44.1 °F 80% 30.32 in 10.0 mi Calm Calm - N/A   Clear
6:58 PM 53.1 °F - 44.1 °F 71% 30.32 in 10.0 mi Calm Calm - N/A   Clear
7:58 PM 51.1 °F - 44.1 °F 77% 30.32 in 10.0 mi ENE 4.6 mph - N/A   Clear
8:58 PM 51.1 °F - 44.1 °F 77% 30.32 in 10.0 mi East 4.6 mph - N/A   Clear
9:58 PM 50.0 °F - 44.1 °F 80% 30.30 in 10.0 mi East 3.5 mph - N/A   Clear
10:58 PM 46.9 °F - 43.0 °F 86% 30.31 in 10.0 mi NE 3.5 mph - N/A   Clear
11:58 PM 46.9 °F - 43.0 °F 86% 30.29 in 10.0 mi Calm Calm - N/A   Partly Cloudy